Flag for Honduras Weather past 2 weeks in Tegucigalpa, Honduras

Now
70 °F

Passing clouds.


Feels Like: 70 °F
Forecast: 65 / 86 °F
Wind: 5 mph from Northeast

Location: Tegucigalpa Airport

Current Time: May 30, 2015 at 3:07:01 AM

Latest Report: May 30, 2015 at 2:00 AM


Visibility: N/A

Pressure: 30.07 "Hg

Humidity: 78%

Dew point: 63 °F

Location of TegucigalpaLocation

Historic Weather in Tegucigalpa — Graph

°F

Tegucigalpa temperature yesterday

Maximum temperature yesterday: 86 °F (at 2:00 PM)
Minimum temperature yesterday: 64 °F (at 5:00 AM)
Average temperature yesterday: 76 °F

Past Weeks' High & Low Weather Summary

 TemperatureHumidityPressure
High90 °F (May 20, 1:00 PM)100% (May 18, 7:00 AM)30.18 "Hg (May 18, 7:00 AM)
Low61 °F (May 16, 5:00 AM)29% (May 20, 1:00 PM)29.89 "Hg (May 18, 2:00 AM)
Average75 °F64%30.10 "Hg
* Reported May 15 2:00 AM — May 30 2:00 AM, Tegucigalpa, Weather by CustomWeather, © 2015

Note: Actual official high and low records may vary slightly from our data, if they occured in-between our weather recording intervals... More about our weather records

Advertising

Tegucigalpa weather history for previous 24 hours

 ConditionsComfort  
Time TempWeatherWind HumidityBarometerVisibility
2:00 AM
Sat, May 30
70 °FPassing clouds.5 mph78%30.07 "HgN/A
1:00 AM72 °FPassing clouds.No wind65%30.07 "HgN/A
12:00 AM75 °FPassing clouds.5 mph54%30.09 "HgN/A
11:00 PM
Fri, May 29
75 °FPassing clouds.No wind54%30.09 "HgN/A
10:00 PM77 °FPassing clouds.7 mph51%30.07 "HgN/A
9:00 PM77 °FPassing clouds.No wind54%30.07 "HgN/A
8:00 PM79 °FPassing clouds.5 mph48%30.04 "HgN/A
7:00 PM79 °FPassing clouds.5 mph58%30.04 "HgN/A
6:00 PM79 °FPartly sunny.9 mph58%30.01 "HgN/A
5:00 PM82 °FPartly sunny.5 mph42%29.98 "HgN/A
4:00 PM84 °FPartly sunny.7 mph70%29.98 "HgN/A
3:00 PM84 °FScattered clouds.12 mph40%29.98 "HgN/A
2:00 PM86 °FScattered clouds.9 mph46%30.01 "HgN/A
1:00 PM84 °FScattered clouds.12 mph48%30.04 "HgN/A
12:00 PM81 °FScattered clouds.7 mph51%30.07 "HgN/A
11:00 AM82 °FScattered clouds.7 mph55%30.09 "HgN/A
10:00 AM79 °FBroken clouds.9 mph61%30.09 "HgN/A
9:00 AM75 °FOvercast.7 mph69%30.09 "HgN/A
8:00 AM72 °FOvercast.7 mph78%30.09 "HgN/A
7:00 AM70 °FBroken clouds.7 mph88%30.07 "HgN/A
6:00 AM64 °FPartly sunny.No wind100%30.07 "HgN/A
5:00 AM64 °FPassing clouds.No wind94%30.04 "HgN/A
4:00 AM66 °FPassing clouds.No wind88%30.04 "HgN/A
3:00 AM66 °FPassing clouds.3 mph94%30.04 "HgN/A
Weather by CustomWeather, © 2015

See weather overviewHow to use our weather pages